Regional Weather Roundup
Issued by NWS Little Rock, AR

Home | Current Version | Previous Version | Graphics & Text | Print | Product List | Glossary On
Versions: 1 2 3 4 5 6 7 8 9 10 11 12 13 14 15 16 17 18 19 20 21 22 23 24 25 26 27 28 29 30 31 32 33 34 35 36 37 38 39 40 41 42 43 44 45 46 47 48 49 50
000
ASUS44 KLZK 030905
RWRLZK

WEATHER ROUNDUP FOR ARKANSAS
NATIONAL WEATHER SERVICE LITTLE ROCK AR
400 AM CDT MON AUG 03 2015

NOTE: "FAIR" INDICATES FEW OR NO CLOUDS BELOW 12,000 FEET WITH NO
SIGNIFICANT WEATHER AND/OR OBSTRUCTIONS TO VISIBILITY.

ARZ001-003-010-029-031000-
NORTHWEST ARKANSAS

CITY           SKY/WX    TMP DP  RH WIND       PRES   REMARKS
FAYETTEVILLE   CLEAR     67  67 100 S3        29.96R
FORT SMITH     CLEAR     74  68  81 NE3       29.91R
HARRISON       CLEAR     67  64  90 CALM      29.96S
BENTONVILLE    CLEAR     72  66  83 CALM      29.96S
ROGERS         CLEAR     72  71  97 SE3       29.96S
SILOAM SPGS    CLEAR     70  63  78 CALM      29.94S
HIGHFILL       CLEAR     70  67  90 CALM      29.95S
$$

ARZ004-005-016-031000-
NORTH CENTRAL ARKANSAS

CITY           SKY/WX    TMP DP  RH WIND       PRES   REMARKS
BATESVILLE     CLEAR     73  66  78 CALM      29.91R
FLIPPIN        CLEAR     70  66  88 NE6       29.92R
MTN HOME       CLEAR     70  68  93 CALM      29.93R
$$

ARZ040-041-031000-
WEST CENTRAL ARKANSAS

CITY           SKY/WX    TMP DP  RH WIND       PRES   REMARKS
MENA           CLEAR     68  63  83 CALM      29.95S
MOUNT IDA      CLEAR     67  64  90 CALM      29.91S
$$

ARZ009-017-025-026-028-031000-
NORTHEAST ARKANSAS

CITY           SKY/WX    TMP DP  RH WIND       PRES   REMARKS
JONESBORO      CLEAR     75  69  81 W6        29.89S
NEWPORT        CLEAR     76  71  84 W3        29.91R
WALNUT RIDGE   CLEAR     75  70  83 SW6       29.90S
BLYTHEVILLE    CLEAR     75  73  93 SW6       29.90R
$$

ARZ022-023-033-042-044-031000-
CENTRAL ARKANSAS

CITY           SKY/WX    TMP DP  RH WIND       PRES   REMARKS
LITTLE ROCK    PTCLDY    75  68  78 CALM      29.91R
N LITTLE ROCK    N/A     79  67  67 W5        29.91R
JACKSONVILLE   CLEAR     71  67  89 CALM      29.90S
SEARCY         CLEAR     71  70  96 CALM      29.92R
HOT SPRINGS    CLEAR     72  64  76 NW3       29.92R
RUSSELLVILLE   CLEAR     69  66  90 CALM      29.91R
$$

ARZ036-031000-
EAST ARKANSAS

CITY           SKY/WX    TMP DP  RH WIND       PRES   REMARKS
WEST MEMPHIS   CLEAR     72  72 100 CALM      29.89R
$$

ARZ050-053-066-070-073-031000-
SOUTHWEST ARKANSAS

CITY           SKY/WX    TMP DP  RH WIND       PRES   REMARKS
ARKADELPHIA    FAIR      69  68  97 CALM      29.91R
CAMDEN         CLEAR     68  64  88 CALM      29.90R
TEXARKANA      MOCLDY    77  63  61 SE5       29.89F
EL DORADO      PTCLDY    70  66  87 CALM      29.90S
DE QUEEN       PTCLDY    67  66  97 NE3       29.89R
$$

ARZ056-057-069-031000-
SOUTHEAST ARKANSAS

CITY           SKY/WX    TMP DP  RH WIND       PRES   REMARKS
PINE BLUFF     CLEAR     71  68  90 CALM      29.90R
STUTTGART      CLEAR     73  68  83 MISG      29.90R
MONTICELLO     CLEAR     70  67  90 CALM      29.90R

$$





USA.gov is the U.S. government's official web portal to all federal, state and local government web resources and services.